{"data":{"norad_id":57727,"epoch":"2026-09-23T00:10:14.945088Z","epoch_age_seconds":89535,"freshness":"FRESH","line1":"1 57727U 23130A   26266.00711742  .00006333  00000+0  26584-3 0  9993","line2":"2 57727  35.0017 233.5873 0003783 285.6957  74.3341 15.22785090170638","mean_motion":15.2278509,"eccentricity":0.0003783,"inclination_deg":35.0017,"raan_deg":233.5873,"arg_perigee_deg":285.6957,"mean_anomaly_deg":74.3341,"bstar":0.00026584,"rev_number":17063,"period_min":94.563573642555,"perigee_km":494.84341019899,"apogee_km":500.0454751185,"semimajor_km":6875.5814426587,"source":"CELESTRAK","updated_at":"2026-09-23T09:00:18.328514Z"}}